Weather History for Youngstown, OH

Change the Weather History Date:

Sunday, December 9, 2012

  Actual Average Record
Temperature  
Mean Temperature 45 °F 32 °F  
Max Temperature 54 °F 38 °F 64 °F (1952)
Min Temperature 35 °F 26 °F -2 °F (1977)
Degree Days  
Heating Degree Days 20 33  
Month to date heating degree days 180 281  
Since 1 July heating degree days 1561 1610  
Cooling Degree Days 0 0  
Month to date cooling degree days 0 0  
Year to date cooling degree days 761 544  
Moisture  
Dew Point 39 °F    
Average Humidity 83    
Maximum Humidity 96    
Minimum Humidity 70    
Precipitation  
Precipitation 0.20 in 0.10 in 0.69 in (1953)
Month to date precipitation 1.59 0.91  
Year to date precipitation 41.49 36.83  
Snow  
Snow 0.00 in 0.40 in - ()
Month to date snowfall 0.0 3.8  
Since 1 July snowfall 2.9 8.2  
Snow Depth 0.00 in    
Sea Level Pressure  
Sea Level Pressure 29.97 in    
Wind  
Wind Speed 9 mph (ESE)    
Max Wind Speed 18 mph    
Max Gust Speed 28 mph    
Visibility 7 miles    
Events Rain    
T = Trace of Precipitation, MM = Missing Value Source: NWS Daily Summary

Daily Weather History Graph

Daily Weather History Graph

Search for Another Location

Airport:

Trip Planner

Search our weather history database for the weather conditions in past years. The results will help you decide how hot, cold, wet, or windy it might be!

Date:

Astronomy

Dec. 09, 2012 Rise Set
Actual Time 7:37 AM EST 4:53 PM EST
Civil Twilight 7:05 AM EST 5:24 PM EST
Nautical Twilight 6:31 AM EST 5:59 PM EST
Astronomical Twilight 5:57 AM EST 6:32 PM EST
Moon 3:06 AM EST (12/9) 2:01 PM EST (12/9)
Length of Visible Light 10h 18m
Length of Day
9h 16m
Waning Crescent, 19% of the Moon is Illuminated
Dec 9
Waning Crescent
Dec 13
New
Dec 20
First Quarter
Dec 28
Full
Jan 4
Last Quarter

Hourly Weather History & Observations

Time (EST) Temp. Windchill Dew Point Humidity Pressure Visibility Wind Dir Wind Speed Gust Speed Precip Events Conditions
12:51 AM 36.0 °F 29.6 °F 30.9 °F 82% 30.13 in 10.0 mi North 8.1 mph - N/A   Overcast
1:51 AM 36.0 °F 30.3 °F 30.9 °F 82% 30.15 in 10.0 mi NNE 6.9 mph - N/A   Overcast
2:51 AM 36.0 °F 28.5 °F 30.0 °F 79% 30.15 in 10.0 mi NE 10.4 mph - N/A   Mostly Cloudy
3:51 AM 36.0 °F 30.3 °F 30.0 °F 79% 30.16 in 10.0 mi ENE 6.9 mph - N/A   Overcast
4:51 AM 36.0 °F 32.1 °F 30.0 °F 79% 30.16 in 10.0 mi East 4.6 mph - N/A   Overcast
5:41 AM 35.6 °F 29.9 °F 30.2 °F 81% 30.14 in 10.0 mi ENE 6.9 mph - N/A   Overcast
5:51 AM 35.6 °F 29.9 °F 30.2 °F 81% 30.14 in 10.0 mi NE 6.9 mph - N/A   Overcast
6:51 AM 35.1 °F 27.4 °F 30.0 °F 82% 30.15 in 10.0 mi NE 10.4 mph - N/A   Mostly Cloudy
7:51 AM 35.1 °F 31.0 °F 30.0 °F 82% 30.16 in 10.0 mi East 4.6 mph - N/A   Overcast
8:51 AM 36.0 °F 29.6 °F 30.0 °F 79% 30.14 in 10.0 mi East 8.1 mph - N/A   Mostly Cloudy
9:51 AM 37.0 °F 31.6 °F 30.9 °F 79% 30.13 in 10.0 mi East 6.9 mph - N/A   Overcast
10:51 AM 39.0 °F 32.8 °F 32.0 °F 76% 30.10 in 10.0 mi East 9.2 mph - N/A   Overcast
11:51 AM 42.1 °F 34.9 °F 34.0 °F 73% 30.05 in 10.0 mi East 13.8 mph - N/A   Overcast
12:34 PM 42.8 °F 36.6 °F 35.6 °F 76% 29.99 in 10.0 mi SE 11.5 mph - N/A   Overcast
12:51 PM 43.0 °F 36.0 °F 35.1 °F 74% 30.00 in 10.0 mi ESE 13.8 mph 18.4 mph N/A   Overcast
1:51 PM 44.1 °F 38.1 °F 37.0 °F 76% 29.96 in 10.0 mi ESE 11.5 mph - N/A   Overcast
2:51 PM 44.6 °F 40.2 °F 37.4 °F 76% 29.93 in 10.0 mi ESE 8.1 mph - N/A Rain Light Rain
3:34 PM 44.6 °F 39.7 °F 39.2 °F 81% 29.91 in 10.0 mi ESE 9.2 mph - 0.00 in Rain Light Rain
3:51 PM 44.1 °F 38.1 °F 39.9 °F 85% 29.92 in 4.0 mi ESE 11.5 mph - 0.01 in Rain Rain
4:09 PM 42.8 °F 36.2 °F 41.0 °F 93% 29.88 in 4.0 mi ESE 12.7 mph - 0.01 in Rain Light Rain
4:51 PM 44.1 °F 37.7 °F 42.1 °F 93% 29.88 in 4.0 mi SE 12.7 mph - 0.03 in Rain Light Rain
5:36 PM 44.6 °F 38.4 °F 42.8 °F 93% 29.84 in 1.0 mi SE 12.7 mph - 0.02 in   Overcast
5:43 PM 44.6 °F 38.4 °F 42.8 °F 93% 29.83 in 2.5 mi SE 12.7 mph - 0.02 in Rain Light Rain
5:51 PM 45.0 °F 39.7 °F 43.0 °F 93% 29.86 in 2.5 mi SE 10.4 mph 19.6 mph 0.02 in Rain Light Rain
6:02 PM 44.6 °F 40.7 °F 44.6 °F 100% 29.83 in 1.0 mi SE 6.9 mph 17.3 mph 0.05 in Rain Heavy Rain
6:20 PM 46.4 °F 41.5 °F 44.6 °F 93% 29.82 in 3.0 mi SE 10.4 mph - 0.08 in Rain Rain
6:51 PM 46.9 °F - 45.0 °F 93% 29.85 in 6.0 mi SSE 8.1 mph - 0.09 in   Overcast
7:51 PM 51.1 °F - 48.9 °F 92% 29.83 in 6.0 mi South 10.4 mph - N/A   Overcast
8:17 PM 50.0 °F - 48.2 °F 94% 29.80 in 2.0 mi South 9.2 mph - N/A   Overcast
8:51 PM 51.1 °F - 50.0 °F 96% 29.80 in 2.0 mi South 9.2 mph 17.3 mph 0.01 in   Overcast
9:51 PM 52.0 °F - 51.1 °F 97% 29.78 in 2.0 mi South 9.2 mph - 0.00 in Rain Light Rain
10:51 PM 53.1 °F - 52.0 °F 96% 29.74 in 2.5 mi South 6.9 mph - 0.02 in Rain Light Rain
11:13 PM 53.6 °F - 51.8 °F 94% 29.71 in 4.0 mi SSE 9.2 mph - N/A   Light Drizzle
11:51 PM 54.0 °F - 53.1 °F 97% 29.71 in 5.0 mi South 9.2 mph - 0.01 in   Light Drizzle